Temp
99 90 81 81 81 81 81 81 81 80 80 80 81 81 80 80 81 81 81 81 81 81 82 82 81 81 81 81 81 81 81 81 81 81 81 82 81 81 81 83 84 88 80
100 91 80 81 81 81 81 81 80 80 80 80 80 80 80 80 81 81 81 81 81 82 82 82 82 81 81 81 81 81 81 81 81 81 81 81 81 81 81 81 83 83 80
98 92 87 80 81 81 81 80 80 80 80 80 80 80 80 80 81 81 81 81 82 82 82 82 82 82 82 81 81 81 81 81 81 81 82 93 88 81 81 81 81 80 79
98 93 91 80 81 81 80 80 80 80 80 80 80 80 80 80 81 81 81 81 82 82 82 82 82 82 82 81 81 81 81 81 81 81 89 93 90 80 80 80 80 80 79
97 96 89 80 80 80 80 80 80 80 80 80 80 80 80 80 80 81 81 81 82 82 82 82 82 82 82 81 81 81 81 81 81 84 97 94 90 82 80 80 80 80 80
100 99 82 80 80 80 80 80 80 80 80 80 80 80 80 80 80 80 81 81 82 82 82 82 82 82 82 82 81 81 81 81 81 97 94 91 89 80 80 80 80 79 79
101 99 89 80 80 80 80 80 80 80 80 80 80 80 80 80 80 80 81 81 82 82 82 82 82 82 82 82 82 81 81 81 89 97 95 90 86 79 80 79 79 79 79
101 97 91 81 80 80 80 80 80 79 80 80 80 80 80 80 80 80 81 81 81 82 82 82 82 81 81 81 81 81 81 81 86 93 96 91 79 79 80 79 79 79 79
102 98 92 90 84 80 80 79 79 79 79 80 80 80 80 80 80 80 81 81 81 81 81 81 81 81 81 81 81 81 81 81 90 95 96 90 78 80 80 79 79 79 79
102 99 95 92 92 89 88 80 79 79 79 79 80 80 80 80 80 80 80 81 81 81 81 81 82 82 82 81 81 81 81 82 92 98 93 88 79 80 80 79 79 79 79
100 100 98 97 95 94 93 86 80 80 80 80 81 80 80 90 88 85 83 80 81 81 82 82 82 83 82 81 81 81 81 94 80 96 92 79 80 80 80 80 79 79 79
98 100 100 98 96 96 96 90 88 89 89 88 89 86 91 94 93 94 86 81 81 81 82 83 82 81 81 95 91 83 92 78 97 85 89 79 80 81 80 80 79 79 79
99 100 101 98 95 98 98 93 92 92 91 90 90 89 91 97 94 95 92 90 90 83 92 88 90 94 98 96 98 98 82 81 97 83 84 79 80 81 81 80 80 79 79
98 99 100 99 95 97 99 95 94 94 94 93 93 90 91 94 92 93 96 95 94 95 96 95 97 97 98 98 97 98 100 93 94 89 83 80 80 81 81 81 80 80 79
97 98 99 98 94 95 95 96 95 94 95 96 94 93 94 93 93 95 96 98 98 98 98 97 96 96 97 97 98 97 97 98 83 75 86 79 79 80 81 81 81 81 80
94 95 98 97 92 95 93 93 94 95 96 96 96 94 91 93 93 94 94 95 97 99 99 98 97 95 96 95 87 94 95 97 96 93 89 83 77 78 78 79 79 80 80
93 94 92 93 93 90 92 92 93 96 97 96 96 94 91 91 92 91 94 94 96 97 98 97 94 94 95 97 94 94 95 95 93 89 88 86 81 76 77 77 77 77 78
91 90 92 94 94 89 91 92 94 95 95 95 95 95 92 91 90 89 93 94 96 95 95 96 93 92 92 93 93 90 91 88 86 83 83 80 78 78 75 75 75 75 75
89 89 88 90 90 90 87 91 90 91 92 94 95 94 90 90 90 89 92 93 93 94 93 93 92 91 90 91 92 85 84 82 83 78 77 76 75 75 75 74 73 73 73
88 89 87 88 86 87 86 87 89 90 92 93 94 94 92 90 90 88 90 90 92 91 91 92 89 91 90 89 89 82 81 80 76 76 73 76 77 75 76 74 78 74 73
82 84 84 84 85 84 84 84 85 86 90 91 93 92 91 90 89 88 89 90 89 88 87 88 88 85 87 89 75 78 77 78 75 73 74 73 73 74 76 81 80 78 74
80 78 81 81 81 84 86 84 86 87 90 91 92 91 90 90 89 88 86 88 87 87 85 85 83 85 84 87 80 78 69 71 75 76 77 74 76 78 80 81 80 80 78
79 81 77 77 77 78 82 85 84 86 87 87 86 86 87 87 87 86 86 85 86 84 87 82 81 81 82 85 82 80 75 72 73 74 73 74 77 80 79 77 77 78 77
70 77 73 76 74 75 77 73 75 80 80 83 84 85 84 82 82 84 84 83 82 83 81 80 81 81 80 81 80 82 83 77 72 66 72 71 74 77 76 77 75 76 76
67 66 69 69 67 62 71 72 70 70 72 68 72 77 78 78 78 79 80 80 78 80 80 79 78 78 82 82 78 80 79 80 79 75 65 66 72 76 76 76 74 75 76
66 66 64 64 63 65 61 60 63 67 68 65 65 68 75 72 76 76 77 75 70 68 71 69 72 75 76 79 81 79 81 76 77 76 71 65 67 72 74 75 72 74 74
MSLP
1008.53 1011.09 1012.45 1012.99 1013.47 1013.83 1013.97 1014.41 1014.82 1015.16 1015.41 1015.75 1016.12 1016.34 1016.52 1016.65 1016.75 1016.94 1017.06 1017.24 1017.44 1017.60 1017.71 1017.76 1017.92 1018.02 1018.09 1018.15 1018.26 1018.35 1018.40 1018.42 1018.48 1018.58 1018.67 1018.81 1018.94 1018.96 1018.96 1018.79 1018.36 1018.96 1019.60
1008.68 1011.14 1012.58 1013.16 1013.56 1013.87 1014.19 1014.62 1015.09 1015.46 1015.65 1016.06 1016.35 1016.62 1016.82 1016.98 1017.07 1017.30 1017.44 1017.56 1017.68 1017.81 1017.94 1018.03 1018.21 1018.37 1018.49 1018.57 1018.62 1018.68 1018.71 1018.71 1018.80 1018.87 1018.97 1019.22 1019.37 1019.33 1019.34 1019.14 1019.02 1019.77 1019.96
1009.15 1010.97 1012.46 1013.23 1013.64 1014.01 1014.36 1014.79 1015.24 1015.59 1015.91 1016.32 1016.64 1016.88 1017.07 1017.25 1017.42 1017.55 1017.67 1017.80 1017.93 1018.03 1018.20 1018.36 1018.50 1018.68 1018.78 1018.91 1018.98 1019.05 1019.03 1018.98 1018.96 1018.92 1018.61 1018.37 1019.40 1019.95 1019.95 1019.94 1020.09 1020.29 1020.41
1009.38 1010.91 1011.80 1013.29 1013.75 1014.12 1014.49 1014.97 1015.40 1015.77 1016.10 1016.52 1016.79 1017.09 1017.31 1017.47 1017.60 1017.73 1017.82 1017.95 1018.07 1018.16 1018.41 1018.53 1018.70 1018.85 1019.04 1019.17 1019.29 1019.33 1019.18 1018.94 1019.07 1019.09 1018.51 1018.53 1019.41 1020.35 1020.47 1020.55 1020.60 1020.68 1020.80
1009.56 1010.82 1011.90 1013.32 1013.89 1014.41 1014.64 1015.14 1015.62 1015.90 1016.26 1016.64 1016.99 1017.24 1017.56 1017.71 1017.80 1017.93 1018.02 1018.07 1018.18 1018.42 1018.59 1018.76 1018.88 1019.02 1019.21 1019.42 1019.53 1019.45 1019.16 1018.94 1018.93 1018.84 1017.87 1018.56 1019.41 1020.60 1020.81 1020.93 1021.03 1021.04 1020.98
1009.35 1010.53 1012.72 1013.50 1014.09 1014.62 1014.95 1015.37 1015.80 1016.13 1016.42 1016.75 1017.06 1017.41 1017.65 1017.85 1017.98 1018.12 1018.17 1018.25 1018.31 1018.55 1018.74 1018.89 1019.06 1019.20 1019.33 1019.54 1019.70 1019.56 1019.31 1019.23 1019.06 1017.66 1018.30 1019.01 1019.69 1020.85 1020.95 1021.17 1021.26 1021.40 1021.48
1009.22 1010.38 1012.81 1013.83 1014.24 1014.82 1015.20 1015.58 1015.97 1016.28 1016.62 1016.96 1017.31 1017.56 1017.72 1017.97 1018.13 1018.26 1018.38 1018.47 1018.49 1018.62 1018.74 1018.88 1019.04 1019.25 1019.42 1019.53 1019.64 1019.54 1019.40 1018.88 1018.68 1017.83 1018.32 1019.18 1020.42 1021.04 1021.17 1021.40 1021.60 1021.71 1021.80
1009.24 1010.56 1012.69 1014.10 1014.52 1014.89 1015.36 1015.76 1016.03 1016.42 1016.74 1017.07 1017.45 1017.71 1017.87 1017.99 1018.31 1018.42 1018.56 1018.63 1018.67 1018.67 1018.85 1018.95 1019.03 1019.19 1019.37 1019.50 1019.60 1019.43 1018.89 1019.11 1018.58 1017.79 1017.98 1019.37 1020.82 1021.11 1021.35 1021.50 1021.74 1021.91 1022.01
1009.22 1010.55 1012.55 1013.67 1014.54 1015.17 1015.43 1015.87 1016.23 1016.51 1016.82 1017.19 1017.51 1017.83 1018.01 1018.19 1018.38 1018.59 1018.67 1018.74 1018.74 1018.79 1018.89 1018.91 1019.01 1019.13 1019.28 1019.40 1019.45 1019.35 1018.79 1018.52 1017.88 1017.46 1017.90 1019.54 1020.89 1021.17 1021.48 1021.72 1021.84 1022.05 1022.19
1009.11 1010.29 1011.91 1012.86 1013.82 1014.70 1015.16 1016.00 1016.51 1016.82 1017.04 1017.36 1017.62 1017.91 1018.05 1018.27 1018.41 1018.53 1018.64 1018.72 1018.66 1018.82 1018.95 1018.97 1019.01 1019.01 1019.11 1019.22 1019.24 1019.07 1018.20 1018.10 1017.49 1016.97 1017.64 1019.41 1020.65 1021.12 1021.48 1021.81 1021.99 1022.14 1022.33
1008.90 1009.74 1011.13 1012.05 1013.02 1013.84 1014.32 1015.68 1016.62 1017.06 1017.36 1017.58 1017.75 1017.90 1018.16 1017.45 1018.02 1018.24 1018.26 1018.56 1018.64 1018.77 1018.86 1018.93 1019.02 1018.98 1018.90 1018.97 1018.94 1018.61 1017.82 1018.22 1017.65 1016.09 1017.45 1019.57 1020.57 1021.08 1021.50 1021.83 1022.02 1022.12 1022.29
1008.69 1009.18 1010.40 1011.34 1012.25 1013.05 1013.72 1014.99 1015.96 1016.48 1016.78 1017.03 1017.09 1017.40 1017.21 1016.52 1016.95 1017.09 1017.95 1018.64 1018.73 1018.76 1018.82 1018.77 1018.72 1018.58 1018.57 1017.79 1018.20 1018.14 1017.18 1017.35 1015.83 1017.15 1018.19 1019.37 1020.56 1021.08 1021.39 1021.71 1022.02 1022.18 1022.24
1008.34 1008.91 1009.80 1010.84 1011.77 1012.09 1012.73 1014.08 1015.05 1015.47 1015.97 1016.40 1016.59 1016.83 1016.65 1015.85 1016.63 1016.91 1017.47 1018.06 1018.18 1018.61 1018.09 1018.31 1018.20 1017.65 1016.60 1016.27 1016.35 1016.46 1017.78 1017.01 1016.18 1017.33 1018.64 1019.49 1020.43 1020.99 1021.40 1021.68 1021.87 1022.07 1022.17
1007.99 1008.73 1009.57 1010.56 1011.58 1011.59 1011.91 1013.22 1014.08 1014.36 1015.02 1015.50 1015.78 1016.35 1016.17 1015.84 1016.34 1016.53 1016.11 1016.66 1016.95 1017.15 1016.64 1017.11 1016.81 1016.32 1015.95 1015.88 1015.96 1015.95 1015.91 1016.23 1016.60 1016.52 1017.49 1019.03 1020.32 1021.01 1021.27 1021.54 1021.79 1021.97 1022.16
1007.91 1008.68 1009.42 1010.25 1011.31 1011.73 1011.94 1012.59 1013.44 1013.71 1014.21 1014.47 1014.98 1015.79 1015.78 1016.01 1015.89 1016.02 1015.72 1015.62 1015.78 1015.90 1015.98 1016.28 1015.97 1016.72 1016.83 1016.71 1016.06 1016.52 1016.67 1016.27 1018.06 1018.94 1020.14 1018.72 1020.48 1021.00 1021.27 1021.39 1021.55 1021.68 1021.83
1008.41 1008.97 1009.64 1010.32 1011.33 1011.76 1012.03 1012.51 1012.95 1013.30 1013.41 1013.88 1014.22 1014.82 1015.91 1015.81 1015.81 1015.85 1015.81 1015.84 1015.64 1015.42 1015.69 1015.89 1016.04 1016.83 1016.74 1016.58 1017.20 1017.06 1017.37 1017.06 1016.77 1016.70 1017.59 1019.45 1021.02 1021.50 1021.64 1021.79 1021.83 1021.82 1021.71
1008.91 1009.35 1010.14 1010.55 1011.28 1012.18 1012.28 1012.61 1012.84 1012.78 1013.15 1013.56 1013.83 1014.58 1015.49 1015.77 1015.68 1015.92 1015.71 1015.89 1015.70 1015.69 1015.73 1015.86 1016.39 1017.04 1017.00 1016.64 1016.98 1017.42 1017.81 1017.75 1017.94 1018.65 1019.33 1020.13 1021.39 1021.97 1022.31 1022.31 1022.29 1022.39 1022.24
1009.23 1009.75 1010.14 1010.54 1010.91 1012.15 1012.26 1012.52 1012.53 1012.69 1013.08 1013.32 1013.80 1014.14 1015.09 1015.59 1015.78 1016.23 1015.56 1015.58 1015.62 1015.89 1016.06 1015.87 1016.60 1017.23 1017.46 1017.24 1017.04 1017.84 1017.90 1018.87 1019.72 1020.17 1020.64 1021.20 1021.70 1022.22 1022.58 1022.80 1022.90 1022.97 1023.16
1009.46 1009.89 1010.29 1010.54 1010.77 1011.45 1012.54 1012.42 1012.73 1012.63 1012.86 1013.04 1013.29 1013.72 1014.60 1015.36 1015.51 1015.64 1015.54 1015.26 1015.69 1015.84 1016.14 1016.23 1016.70 1017.15 1017.20 1017.40 1017.36 1018.77 1019.59 1020.16 1020.48 1021.08 1021.67 1022.09 1022.45 1022.75 1022.83 1023.37 1023.42 1023.53 1023.62
1009.22 1009.71 1010.35 1010.70 1010.91 1011.18 1011.94 1012.63 1012.80 1012.66 1012.50 1012.79 1012.77 1013.04 1013.76 1014.75 1015.19 1015.41 1015.24 1015.27 1015.54 1016.05 1016.21 1016.33 1016.60 1016.82 1017.10 1017.62 1017.71 1019.48 1020.21 1020.51 1021.11 1021.63 1022.23 1022.21 1022.35 1022.64 1022.85 1023.08 1023.28 1024.02 1024.12
1009.54 1009.43 1009.92 1010.55 1010.97 1011.50 1011.73 1012.06 1012.21 1012.26 1012.21 1012.30 1012.48 1012.86 1013.29 1013.98 1014.71 1015.17 1015.27 1015.00 1015.58 1016.15 1016.29 1016.43 1016.74 1017.19 1017.51 1017.53 1018.93 1020.13 1020.77 1021.21 1021.51 1021.91 1022.05 1022.28 1022.39 1022.57 1022.53 1022.37 1022.61 1023.37 1024.32
1010.46 1010.26 1010.13 1010.61 1011.10 1011.44 1011.33 1011.66 1011.92 1011.84 1011.73 1011.76 1011.92 1012.37 1012.98 1013.54 1014.19 1014.54 1014.97 1014.93 1015.11 1016.17 1016.32 1016.56 1016.93 1016.95 1017.72 1017.51 1018.13 1019.26 1020.42 1021.52 1021.37 1021.38 1021.38 1021.81 1021.76 1021.89 1022.08 1022.24 1022.60 1022.86 1023.22
1010.81 1010.58 1010.61 1010.57 1011.11 1011.59 1011.50 1011.58 1011.73 1011.66 1011.58 1011.54 1011.73 1012.18 1012.52 1013.18 1013.79 1014.41 1014.56 1015.03 1015.01 1015.75 1015.86 1016.75 1017.18 1017.21 1016.90 1017.06 1017.79 1017.80 1018.13 1018.65 1020.05 1021.15 1021.34 1021.40 1021.30 1021.42 1021.96 1022.75 1022.79 1023.07 1023.37
1012.35 1011.63 1011.55 1011.25 1011.53 1011.79 1011.92 1011.91 1011.64 1011.39 1011.02 1011.33 1011.62 1012.34 1012.80 1013.52 1013.94 1014.28 1014.58 1014.88 1015.31 1015.66 1015.88 1016.24 1016.92 1017.02 1017.10 1016.47 1017.28 1017.72 1017.34 1017.88 1018.46 1020.10 1020.99 1021.26 1021.60 1021.54 1022.14 1022.64 1022.97 1023.40 1023.31
1013.38 1013.05 1012.95 1012.91 1013.01 1013.18 1012.64 1012.23 1011.67 1011.91 1011.65 1012.40 1012.64 1012.81 1013.01 1013.45 1013.88 1014.60 1014.91 1015.06 1015.56 1016.02 1016.07 1016.13 1016.69 1017.03 1016.81 1016.55 1016.49 1017.01 1017.37 1017.50 1017.80 1018.21 1019.67 1020.83 1021.36 1021.61 1022.13 1022.32 1022.85 1023.34 1023.34
1014.24 1013.98 1013.79 1013.87 1014.02 1013.89 1013.93 1013.94 1012.64 1011.54 1011.22 1013.17 1013.35 1013.50 1013.19 1013.76 1013.86 1013.71 1014.00 1014.99 1015.89 1016.45 1016.63 1016.84 1016.88 1017.04 1017.13 1016.79 1016.38 1016.40 1016.54 1017.25 1017.23 1017.53 1018.28 1019.98 1020.71 1021.23 1022.15 1022.45 1022.81 1023.19 1023.53
Wind_Speed
16 20 16 16 15 11 14 16 16 16 16 15 14 13 12 11 12 13 13 13 12 12 14 15 15 15 15 15 15 14 13 14 14 15 15 14 14 12 11 8 14 16 14
21 21 17 16 16 13 16 16 16 15 16 14 14 13 12 12 13 12 12 12 12 13 14 14 14 14 14 14 13 13 12 12 13 14 15 14 12 11 14 17 19 13 13
21 21 19 16 16 14 16 17 16 16 15 14 13 13 12 12 12 12 11 11 12 13 13 13 13 13 13 12 12 11 10 9 11 14 16 13 12 11 12 14 15 14 14
20 19 19 17 16 14 16 17 16 16 15 14 13 13 12 12 12 12 11 11 11 12 11 11 12 12 12 11 11 10 8 8 10 12 11 12 12 11 11 10 11 12 13
19 19 19 17 16 15 15 17 16 16 15 14 13 13 12 12 11 10 10 10 11 10 10 10 10 10 9 9 9 8 7 8 9 12 10 13 11 11 10 10 11 9 7
19 19 22 17 17 16 17 17 16 16 15 14 14 13 13 12 11 9 9 9 10 9 9 9 9 8 8 7 5 5 6 8 11 5 11 11 12 11 9 12 12 12 12
18 19 19 17 16 16 17 17 15 15 14 13 13 13 13 12 10 9 9 8 8 8 8 8 7 7 6 6 6 5 6 12 10 9 7 12 12 10 11 11 10 10 10
16 20 19 17 15 15 16 15 15 14 13 13 12 12 12 12 10 9 8 7 6 6 5 5 5 5 4 4 4 5 11 9 12 8 12 12 13 12 11 11 10 10 9
17 18 18 17 15 14 15 15 14 13 13 12 11 11 11 11 10 8 7 6 5 4 4 4 4 4 4 4 4 6 11 14 9 6 14 10 13 12 11 10 10 9 8
17 19 18 17 17 16 15 14 13 12 12 11 12 11 11 10 10 9 8 7 6 5 5 4 4 5 5 6 6 8 14 13 13 10 10 12 15 13 11 9 8 8 7
15 19 18 18 18 16 16 14 12 12 11 11 11 11 10 10 11 12 8 10 7 6 5 5 5 7 8 9 9 11 14 7 19 3 11 20 15 12 10 9 9 8 8
17 18 18 18 18 17 13 16 14 13 11 11 12 12 11 11 10 9 11 9 7 7 6 6 7 10 11 10 8 13 8 11 4 14 8 20 14 12 11 10 9 9 9
17 14 17 16 17 18 15 13 9 9 9 9 13 11 12 8 8 8 7 7 8 10 8 8 8 9 14 10 12 10 7 10 4 6 13 16 12 10 8 9 10 10 10
17 16 16 17 16 16 12 12 12 11 11 10 12 12 9 5 7 9 8 10 9 9 11 9 9 7 1 5 4 3 2 2 5 7 14 16 9 6 6 8 9 10 10
16 17 16 17 15 13 11 12 12 12 12 13 12 12 10 8 8 9 7 8 7 9 7 7 5 4 5 8 3 2 3 5 15 9 4 19 10 5 4 2 4 9 11
13 15 15 15 15 15 11 12 12 11 12 11 11 12 14 9 7 9 8 7 7 8 7 7 5 5 7 7 13 7 1 3 4 13 10 12 14 13 13 12 10 7 3
12 12 14 15 17 15 15 12 10 11 12 11 10 11 13 10 8 9 9 8 9 6 10 6 6 6 6 5 3 4 5 3 7 11 7 10 11 15 15 16 17 16 15
12 13 15 14 17 17 14 12 11 11 11 11 11 11 14 14 11 9 9 9 9 7 9 7 6 7 8 7 5 1 4 8 6 11 8 7 7 8 13 18 18 18 19
14 13 14 15 15 19 15 12 12 13 11 12 11 11 14 14 16 10 11 9 7 8 8 7 8 9 8 7 5 7 4 2 4 8 7 8 7 7 7 15 18 17 17
11 15 14 14 13 12 12 11 12 12 12 12 12 12 13 13 15 12 11 11 9 8 10 9 9 9 8 7 7 6 5 5 5 8 7 6 8 7 7 8 10 10 15
7 9 13 17 14 11 11 13 12 12 12 12 11 13 13 13 15 10 11 11 8 9 11 9 8 7 8 7 8 6 4 3 7 6 7 6 7 6 5 8 8 8 8
10 8 10 12 15 14 12 10 10 11 11 11 11 12 13 13 13 12 12 12 11 11 10 8 9 9 10 9 9 8 6 4 5 7 7 7 9 7 7 5 6 5 10
5 7 7 11 11 13 15 11 9 10 10 10 8 6 9 11 11 11 11 12 8 11 10 9 10 12 11 9 11 8 7 8 11 7 8 6 9 7 7 7 7 6 7
13 13 12 8 6 10 14 11 13 12 10 9 8 9 6 4 8 10 11 10 9 9 12 11 10 12 12 10 9 11 11 4 7 8 8 4 6 8 8 8 8 6 7
13 12 12 11 13 14 13 10 9 10 1 4 3 8 10 10 11 12 11 10 10 9 11 9 11 13 11 12 8 11 12 7 10 9 11 9 7 8 8 8 8 8 7
13 14 14 13 12 12 10 13 14 9 3 3 3 7 4 4 6 11 10 5 4 4 3 5 5 10 11 10 11 9 11 11 11 9 7 12 11 10 8 7 6 8 7
Wind_Direction
129 133 145 145 146 154 132 135 134 134 130 130 137 136 130 123 116 112 108 106 105 104 103 102 99 96 94 93 91 89 88 90 92 92 89 85 76 67 51 49 128 94 91
127 141 146 148 147 151 136 135 134 131 129 134 139 140 136 129 120 119 116 114 112 108 103 101 101 101 98 96 95 95 100 108 112 118 110 90 77 71 62 55 70 90 94
131 142 152 149 149 153 140 134 134 135 133 137 142 142 136 127 125 121 119 117 117 113 110 111 110 108 106 103 101 100 111 133 143 155 169 102 96 82 76 80 92 91 87
136 146 148 150 150 156 141 135 138 138 137 142 143 136 131 128 125 122 120 119 117 116 116 116 116 116 116 114 115 117 134 184 182 190 197 109 102 99 95 89 86 95 93
146 153 135 151 150 154 144 141 145 141 141 140 137 134 135 130 124 123 120 119 119 121 122 119 117 117 121 125 129 135 178 216 228 219 119 120 106 107 110 117 123 103 83
150 155 137 149 151 155 152 147 146 144 142 143 144 145 140 135 128 127 124 125 126 126 124 120 119 120 122 121 127 177 224 252 265 103 91 92 95 120 108 84 87 91 94
148 137 148 152 152 156 157 153 149 146 144 147 149 149 141 136 133 129 127 128 129 128 130 132 130 125 130 141 155 207 246 255 259 122 135 93 109 118 111 104 101 98 97
149 132 143 153 155 156 157 157 151 148 148 150 152 150 143 138 140 137 134 137 136 134 139 135 139 136 145 161 169 212 252 269 282 104 118 106 130 132 128 124 121 116 112
151 143 151 163 163 162 157 156 154 153 151 151 147 148 144 143 143 143 142 151 145 152 172 172 163 157 174 188 191 217 251 247 263 168 125 121 142 139 139 138 135 131 127
159 149 161 166 168 178 165 160 160 156 153 151 150 152 151 146 153 162 165 163 157 177 174 184 185 172 185 194 197 218 243 258 246 138 88 116 143 148 147 149 144 139 138
167 157 165 171 167 183 168 161 162 165 162 160 163 161 168 181 179 168 117 144 161 171 174 185 210 214 203 198 195 220 244 168 243 110 113 132 141 148 154 160 163 163 164
175 168 168 174 168 178 170 155 186 178 185 191 189 175 209 202 181 215 134 151 170 178 192 207 228 235 213 179 184 219 231 238 121 99 116 126 141 156 166 170 178 183 183
179 178 174 176 169 183 173 158 185 181 190 194 198 186 221 197 164 190 154 176 184 195 190 196 199 224 207 213 163 196 267 33 106 98 120 124 142 160 173 184 193 199 199
179 180 182 174 176 199 173 169 187 189 191 193 194 192 220 205 174 219 189 192 197 176 213 200 200 230 22 303 13 127 258 29 112 139 125 119 136 165 189 200 207 210 214
184 181 187 175 176 204 190 176 189 201 189 193 187 187 223 209 204 216 215 221 189 186 186 205 210 130 211 238 8 83 273 329 189 92 114 87 81 104 115 117 240 234 227
196 185 190 187 170 206 192 188 195 199 187 208 192 186 216 205 211 222 221 229 227 219 197 206 189 171 228 226 111 263 30 264 303 18 93 86 82 80 80 74 63 49 344
188 191 203 198 173 210 189 205 215 196 216 208 208 187 191 214 214 242 223 202 235 232 241 201 151 189 244 246 126 140 236 234 52 74 66 110 110 89 83 77 67 58 59
206 206 198 200 186 190 215 201 205 218 210 203 217 193 190 206 239 207 235 213 224 217 230 214 174 193 225 218 189 10 37 65 59 82 90 85 98 92 83 80 75 72 67
194 199 214 211 214 186 216 210 225 214 211 221 207 211 187 214 212 217 234 227 217 223 224 223 194 215 204 237 141 101 80 83 120 85 97 97 92 113 110 92 82 77 78
212 205 207 216 215 198 188 218 210 235 210 223 216 212 190 202 219 200 228 239 200 220 226 216 230 208 229 204 124 122 149 179 141 123 130 124 136 134 146 130 113 87 86
288 201 203 205 209 217 196 199 212 216 222 212 223 215 214 200 211 220 223 222 204 222 238 202 219 221 225 204 112 129 117 205 136 154 156 156 168 142 165 163 141 133 108
302 308 197 211 211 210 210 209 215 223 215 224 212 217 212 215 213 212 219 241 196 223 232 229 215 209 225 211 182 172 173 194 213 190 172 176 187 167 151 164 103 121 149
336 343 288 204 218 215 230 212 218 224 228 212 221 227 199 211 220 229 214 232 213 206 228 212 212 224 207 207 207 210 210 219 164 186 183 198 169 170 152 140 154 129 114
9 6 9 347 266 226 229 245 236 217 212 212 212 211 225 231 248 239 236 228 243 216 241 196 217 222 238 212 193 244 258 77 189 171 196 144 193 163 169 168 148 149 151
15 16 24 25 29 12 333 266 250 235 311 351 347 240 204 199 198 231 243 243 237 234 238 249 212 218 224 242 197 204 235 223 225 183 173 175 200 186 175 163 162 167 164
39 34 25 35 31 24 18 9 347 293 351 267 256 283 242 212 203 202 211 223 52 10 307 316 283 240 238 244 254 206 223 212 216 215 179 167 188 182 175 191 179 166 161